Showing default

DASH/VEP 3, 27368

Orbit data source: Space-Track

DASH/VEP 3, 27368 is a payload satellite owned by NASDA (JP) in HEO that was launched on Mon, 04 Feb 2002 UTC via an H-IIA 2024 launch vehicle from the Tanegashima Space Center (TNSTA). Payload-class satellites include a variety of spacecraft equipped with specific instruments for various scientific and technological missions. These include communications satellites like Starlink; space stations such as the ISS; scientific satellites like the Hubble; Earth observation satellites from companies like Planet Labs, Umbra, and HawkEye 360; GPS; miniature CubeSats for education and research; and military/defense satellites.

Loading next visibility...
Identifier
27368, 2002-003B
Orbit
HEO
Country
Flag of JPJP / JPN
Related business
Manufacturer
NASDA?
Mission
Civil Technology
Bus & Motor
VEP, Unknown motor
Mass
~330 kg wet, ~330 kg dry
Launch date (UTC)
2002-02-04 (24 years ago)
Launch vehicle
H-IIA 2024
Launch site
Tanegashima Space Center (TNSTA)
Object type
Payload
Rocket body
Debris
Shape & HBR
Hex Cyl, Unknown HBR
Radar Cross Section
0.344 m², Large (>1 m²)

Expand to show TLE details & history
Last TLE update: 2 days ago

TLE from 2 days ago
0 DASH/VEP 3
1 27368U 02003B   25259.10754641  .00001728  00000-0  46302-2 0  9997
2 27368  29.1101 350.0607 7148391 145.0195 295.1898  2.36862107199524
Epoch: 2025-09-16T02:34Z
TLE epoch observation values (Epoch: 2025-09-16T02:34:52.009Z)
Latitude
0.00018°
Longitude
-43.96195°
Altitude
21,688.397 km
Speed
3.411 km/s
True Right ascension
23h 20m 13s
True Declination
0° 00' 01"
Sunlit
Object was in full shadow at epoch
Visualization orbit readout
Latitude
Unknown
Longitude
Unknown
Altitude
Unknown
Speed
Unknown
Apparent Right ascension
Unknown
Apparent Declination
Unknown
Sunlit
N/A
Visualization observer readout
Local Sidereal Time
07:19:50
Azimuth
Unknown
Elevation
Unknown
Doppler factor
Unknown
Orbital elements
Apogee altitude
34,393.574 km
Perigee altitude
401.798 km
Semi-major axis
23,775.823 km
Eccentricity
0.71484
Inclination
29.1101°
RAAN
350.0607°
Arg. of periapsis
145.0195°
True anomaly
215.06491°
Mean anomaly
295.1898°
Eccentric anomaly
255.53149°
Mean motion
0.59202 °/min
Orbital period
608.08 mins
BSTAR
0.0046302
Loading maneuver chart data...
Computing Atmospheric mass density...
Loading historical data...
Loading historical data...
Loading historical data...
Loading historical data...
Loading historical data...
Loading historical data...
Loading historical data...
Other satellites on launch #3 in the year 2002 (2002-02-04 UTC)

Documentation

Showing up to 5 results
|